Home > Weather > Labadee > Past weeks

Flag for Haiti Past Weather in Labadee, Haiti — Yesterday and Last 2 Weeks

Now
77 °F

Partly cloudy.


Feels Like: 78 °F
Forecast: 80 / 91 °F
Wind: 9 mph from Southeast

Location: Santiago

Current Time: Jul 2, 2016 at 12:44:16 AM

Latest Report: Jul 2, 2016 at 12:00 AM


Visibility: N/A

Pressure: 30.09 "Hg

Humidity: 100%

Dew Point: 77 °F

Location of LabadeeLocation

Past Weather in Labadee — Graph

°F

Labadee Temperature Yesterday

Maximum temperature yesterday: 88 °F (at 2:00 PM)
Minimum temperature yesterday: 73 °F (at 5:00 AM)
Average temperature yesterday: 80 °F

High & Low Weather Summary for the Past Weeks

 TemperatureHumidityPressure
High93 °F (Jun 17, 2:00 PM)100% (Jun 18, 4:00 AM)30.12 "Hg (Jun 18, 4:00 AM)
Low70 °F (Jun 22, 3:00 AM)41% (Jun 17, 2:00 PM)29.92 "Hg (Jun 27, 3:00 PM)
Average80 °F80%30.03 "Hg
* Reported Jun 16 11:00 PM — Jul 1 11:00 PM, Labadee, Weather by CustomWeather, © 2016

Note: Actual official high and low records may vary slightly from our data, if they occured in-between our weather recording intervals... More about our weather records

Advertising

Labadee Weather History for the Previous 24 Hours

Scroll right to see more
 ConditionsComfort  
Time TempWeatherWind HumidityBarometerVisibility
11:00 PM
Fri, Jul 1
77 °FPassing clouds.7 mph100%30.09 "HgN/A
10:00 PM77 °FPartly cloudy.7 mph94%30.09 "HgN/A
9:00 PM77 °FPartly cloudy.7 mph100%30.09 "HgN/A
8:00 PM79 °FPartly cloudy.7 mph94%30.07 "HgN/A
7:00 PM77 °FPartly cloudy.7 mph94%30.07 "HgN/A
6:00 PM82 °FBroken clouds.16 mph79%30.04 "HgN/A
4:00 PM86 °FScattered clouds.12 mph62%30.01 "HgN/A
3:00 PM88 °FBroken clouds.12 mph55%30.01 "HgN/A
2:00 PM88 °FBroken clouds.13 mph52%30.01 "HgN/A
1:00 PM86 °FBroken clouds.14 mph59%30.04 "HgN/A
12:00 PM86 °FBroken clouds.14 mph55%30.07 "HgN/A
11:00 AM84 °FBroken clouds.12 mph62%30.07 "HgN/A
10:00 AM82 °FBroken clouds.15 mph70%30.09 "HgN/A
9:00 AM81 °FBroken clouds.13 mph84%30.09 "HgN/A
8:00 AM79 °FBroken clouds.7 mph89%30.09 "HgN/A
7:00 AM77 °FLight rain. Broken clouds.7 mph89%30.07 "Hg4 mi
6:00 AM75 °FBroken clouds.7 mph94%30.07 "HgN/A
5:00 AM73 °FPassing clouds.3 mph100%30.04 "HgN/A
4:00 AM75 °FPassing clouds.7 mph94%30.04 "HgN/A
3:00 AM75 °FPassing clouds.6 mph94%30.01 "HgN/A
2:00 AM77 °FPassing clouds.7 mph89%30.04 "HgN/A
1:00 AM77 °FPassing clouds.5 mph89%30.04 "HgN/A
12:00 AM79 °FPassing clouds.6 mph84%30.04 "HgN/A
Weather by CustomWeather, © 2016

See weather overviewHow to use our weather pages